| time (UTC) | temp F | wind direction | speed MPH | gust MPH | rain 1hr in | rain 24hr in | rain mn in | humidity % | barometer mb |
| 20260503221007 | 56 | 318 | 8.0 | 15.0 | 0.00 | 0.00 | 0.00 | 35 | 1012.4 |
| 20260503220007 | 57 | 295 | 6.0 | 10.0 | 0.00 | 0.00 | 0.00 | 34 | 1012.5 |
| 20260503215002 | 57 | 295 | 5.0 | 9.0 | 0.00 | 0.00 | 0.00 | 34 | 1012.4 |
| 20260503214003 | 57 | 295 | 12.0 | 23.0 | 0.00 | 0.00 | 0.00 | 32 | 1012.3 |
| 20260503213003 | 58 | 250 | 11.0 | 19.0 | 0.00 | 0.00 | 0.00 | 32 | 1012.2 |
| 20260503212004 | 58 | 250 | 6.0 | 14.0 | 0.00 | 0.00 | 0.00 | 32 | 1012.1 |
| 20260503210004 | 58 | 273 | 10.0 | 19.0 | 0.00 | 0.00 | 0.00 | 31 | 1012.2 |
| 20260503205005 | 59 | 273 | 14.0 | 18.0 | 0.00 | 0.00 | 0.00 | 30 | 1012.2 |
| 20260503204005 | 58 | 273 | 13.0 | 18.0 | 0.00 | 0.00 | 0.00 | 31 | 1012.2 |
| 20260503203006 | 58 | 273 | 11.0 | 19.0 | 0.00 | 0.00 | 0.00 | 30 | 1012.5 |
| 20260503195004 | 57 | 250 | 19.0 | 25.0 | 0.00 | 0.00 | 0.00 | 35 | 1012.7 |
| 20260503193004 | 57 | 250 | 13.0 | 24.0 | 0.00 | 0.00 | 0.00 | 34 | 1013.1 |
| 20260503192004 | 57 | 250 | 13.0 | 18.0 | 0.00 | 0.00 | 0.00 | 36 | 1013.2 |
| 20260503191006 | 56 | 228 | 13.0 | 17.0 | 0.00 | 0.00 | 0.00 | 38 | 1013.4 |
| 20260503190006 | 56 | 273 | 17.0 | 23.0 | 0.00 | 0.00 | 0.00 | 35 | 1013.4 |
| 20260503185006 | 57 | 250 | 8.0 | 11.0 | 0.00 | 0.00 | 0.00 | 36 | 1013.5 |
| 20260503184007 | 58 | 250 | 15.0 | 22.0 | 0.00 | 0.00 | 0.00 | 37 | 1013.8 |
| 20260503183001 | 57 | 273 | 15.0 | 24.0 | 0.00 | 0.00 | 0.00 | 35 | 1013.8 |
| 20260503182002 | 57 | 250 | 14.0 | 19.0 | 0.00 | 0.00 | 0.00 | 35 | 1014.0 |
| 20260503181003 | 56 | 250 | 16.0 | 23.0 | 0.00 | 0.00 | 0.00 | 37 | 1014.0 |
| 20260503180004 | 56 | 250 | 18.0 | 25.0 | 0.00 | 0.00 | 0.00 | 34 | 1014.1 |
| 20260503173002 | 56 | 250 | 16.0 | 24.0 | 0.00 | 0.00 | 0.00 | 38 | 1014.2 |
| 20260503172003 | 55 | 273 | 15.0 | 22.0 | 0.00 | 0.00 | 0.00 | 37 | 1014.4 |
| 20260503171004 | 54 | 250 | 18.0 | 24.0 | 0.00 | 0.00 | 0.00 | 37 | 1014.4 |
| 20260503131006 | 44 | 273 | 9.0 | 13.0 | 0.00 | 0.00 | 0.00 | 65 | 1016.1 |
| 20260503081007 | 31 | 250 | 3.0 | 4.0 | 0.00 | 0.00 | 0.00 | 90 | 1015.8 |
| 20260503072002 | 32 | 228 | 5.0 | 6.0 | 0.00 | 0.00 | 0.00 | 87 | 1015.8 |
| 20260503071003 | 32 | 228 | 5.0 | 6.0 | 0.00 | 0.00 | 0.00 | 86 | 1015.7 |
| 20260503054002 | 35 | 228 | 4.0 | 5.0 | 0.00 | 0.00 | 0.00 | 81 | 1016.0 |
| 20260503053002 | 35 | 228 | 4.0 | 6.0 | 0.00 | 0.00 | 0.00 | 81 | 1016.0 |
| 20260503052003 | 35 | 228 | 4.0 | 5.0 | 0.00 | 0.00 | 0.00 | 81 | 1016.1 |
| 20260503051003 | 35 | 228 | 5.0 | 7.0 | 0.00 | 0.00 | 0.00 | 80 | 1016.1 |
| 20260503050004 | 35 | 228 | 6.0 | 7.0 | 0.00 | 0.00 | 0.00 | 79 | 1016.2 |
| 20260503045005 | 36 | 228 | 5.0 | 7.0 | 0.00 | 0.00 | 0.00 | 78 | 1016.2 |
| 20260503042003 | 37 | 250 | 6.0 | 7.0 | 0.00 | 0.00 | 0.00 | 74 | 1016.2 |
| 20260503041004 | 37 | 250 | 4.0 | 5.0 | 0.00 | 0.00 | 0.00 | 73 | 1016.3 |
| 20260503040004 | 37 | 228 | 4.0 | 5.0 | 0.00 | 0.00 | 0.00 | 73 | 1016.3 |
| 20260503035004 | 37 | 273 | 4.0 | 5.0 | 0.00 | 0.00 | 0.00 | 72 | 1016.4 |
| 20260503034004 | 37 | 228 | 3.0 | 4.0 | 0.00 | 0.00 | 0.00 | 71 | 1016.4 |
| 20260503033005 | 38 | 228 | 2.0 | 3.0 | 0.00 | 0.00 | 0.00 | 70 | 1016.4 |
| 20260503032006 | 38 | 205 | 2.0 | 3.0 | 0.00 | 0.00 | 0.00 | 70 | 1016.5 |
| 20260503031001 | 38 | 228 | 3.0 | 4.0 | 0.00 | 0.00 | 0.00 | 70 | 1016.5 |
| 20260503030002 | 38 | 205 | 3.0 | 4.0 | 0.00 | 0.00 | 0.00 | 70 | 1016.5 |
| 20260503025002 | 38 | 228 | 3.0 | 4.0 | 0.00 | 0.00 | 0.00 | 69 | 1016.6 |
| 20260503024003 | 39 | 250 | 5.0 | 6.0 | 0.00 | 0.00 | 0.00 | 68 | 1016.7 |
| 20260503023004 | 39 | 250 | 6.0 | 7.0 | 0.00 | 0.00 | 0.00 | 66 | 1016.7 |
| 20260503022005 | 39 | 250 | 6.0 | 7.0 | 0.00 | 0.00 | 0.00 | 66 | 1016.7 |
| 20260503020005 | 39 | 295 | 4.0 | 8.0 | 0.00 | 0.00 | 0.00 | 66 | 1016.8 |
| 20260503014005 | 39 | 273 | 4.0 | 8.0 | 0.00 | 0.00 | 0.00 | 66 | 1016.7 |
| 20260503013006 | 39 | 318 | 2.0 | 5.0 | 0.00 | 0.00 | 0.00 | 66 | 1016.7 |
| 20260503012007 | 39 | 273 | 4.0 | 6.0 | 0.00 | 0.00 | 0.00 | 67 | 1016.7 |
| 20260503011006 | 39 | 295 | 6.0 | 10.0 | 0.00 | 0.00 | 0.00 | 65 | 1016.6 |
| 20260503010002 | 39 | 273 | 5.0 | 11.0 | 0.00 | 0.00 | 0.00 | 64 | 1016.6 |
| 20260503004002 | 39 | 318 | 4.0 | 7.0 | 0.00 | 0.00 | 0.00 | 66 | 1016.5 |
| 20260503003002 | 39 | 295 | 3.0 | 4.0 | 0.00 | 0.00 | 0.00 | 66 | 1016.4 |
| 20260503002003 | 39 | 273 | 6.0 | 12.0 | 0.00 | 0.00 | 0.00 | 64 | 1016.4 |
| 20260503001003 | 40 | 295 | 4.0 | 10.0 | 0.00 | 0.00 | 0.00 | 65 | 1016.4 |
| 20260503000004 | 40 | 295 | 1.0 | 2.0 | 0.00 | 0.00 | 0.00 | 64 | 1016.4 |
| 20260502235004 | 40 | 25 | 3.0 | 7.0 | 0.00 | 0.00 | 0.00 | 65 | 1016.2 |
| 20260502234005 | 40 | 295 | 8.0 | 14.0 | 0.00 | 0.00 | 0.00 | 63 | 1016.2 |
| 20260502233005 | 40 | 340 | 7.0 | 14.0 | 0.00 | 0.00 | 0.00 | 63 | 1016.2 |
| 20260502232006 | 41 | 318 | 5.0 | 10.0 | 0.00 | 0.00 | 0.00 | 63 | 1016.2 |
| 20260502231007 | 41 | 318 | 3.0 | 7.0 | 0.00 | 0.00 | 0.00 | 62 | 1016.0 |
| 20260502230007 | 41 | 318 | 6.0 | 11.0 | 0.00 | 0.00 | 0.00 | 60 | 1016.0 |
| 20260502224003 | 41 | 318 | 7.0 | 12.0 | 0.00 | 0.00 | 0.00 | 58 | 1016.0 |
| 20260502222002 | 42 | 3 | 3.0 | 6.0 | 0.00 | 0.00 | 0.00 | 62 | 1015.9 |